Hourly Weather Allate

Today, 21 April, Wednesday

Time Temperature Precipitation Wind Pressure Humidity
00:00 +14°C° 0 mm 3 mps 636 mmHg 53%
01:00 +13°C° 0 mm 3 mps 636 mmHg 54%
02:00 +13°C° 0 mm 3 mps 636 mmHg 55%
03:00 +13°C° 0 mm 3 mps 636 mmHg 56%
04:00 +13°C° 0 mm 3 mps 636 mmHg 57%
05:00 +14°C° 0 mm 2 mps 636 mmHg 57%
06:00 +14°C° 0 mm 2 mps 636 mmHg 58%
07:00 +15°C° 0 mm 2 mps 637 mmHg 53%
08:00 +17°C° 0 mm 2 mps 637 mmHg 49%
09:00 +19°C° 0 mm 1 mps 638 mmHg 45%
10:00 +19°C° 0 mm 2 mps 638 mmHg 45%
11:00 +20°C° 0 mm 3 mps 638 mmHg 46%
12:00 +20°C° 0 mm 4 mps 638 mmHg 46%
13:00 +20°C° 0 mm 4 mps 638 mmHg 49%
14:00 +19°C° 0 mm 4 mps 638 mmHg 52%
15:00 +18°C° 0 mm 3 mps 637 mmHg 55%
16:00 +16°C° 1.3 mm 3 mps 638 mmHg 67%
17:00 +13°C° 1.3 mm 2 mps 638 mmHg 79%
18:00 +10°C° 1.3 mm 1 mps 638 mmHg 91%
19:00 +11°C° 1 mm 1 mps 638 mmHg 90%
20:00 +11°C° 1 mm 1 mps 638 mmHg 89%
21:00 +10°C° 1 mm 0 mps 639 mmHg 89%
22:00 +11°C° 0.3 mm 1 mps 639 mmHg 90%
23:00 +11°C° 0.3 mm 1 mps 639 mmHg 92%

Tomorrow, 22 April, Thursday

Time Temperature Precipitation Wind Pressure Humidity
00:00 +10°C° 0.3 mm 1 mps 639 mmHg 93%
01:00 +10°C° 0 mm 1 mps 638 mmHg 93%
02:00 +10°C° 0 mm 1 mps 638 mmHg 93%
03:00 +10°C° 0 mm 1 mps 638 mmHg 93%
04:00 +10°C° 0 mm 1 mps 638 mmHg 92%
05:00 +10°C° 0 mm 1 mps 638 mmHg 91%
06:00 +9°C° 0 mm 1 mps 638 mmHg 90%
07:00 +9°C° 0 mm 2 mps 638 mmHg 86%
08:00 +10°C° 0 mm 2 mps 639 mmHg 82%
09:00 +12°C° 0 mm 2 mps 639 mmHg 78%
10:00 +12°C° 0 mm 3 mps 639 mmHg 74%
11:00 +12°C° 0 mm 3 mps 639 mmHg 71%
12:00 +13°C° 0 mm 3 mps 639 mmHg 67%
13:00 +12°C° 0 mm 3 mps 639 mmHg 71%
14:00 +12°C° 0 mm 3 mps 639 mmHg 75%
15:00 +11°C° 0 mm 3 mps 639 mmHg 80%
16:00 +10°C° 0.3 mm 3 mps 639 mmHg 83%
17:00 +9°C° 0.3 mm 2 mps 639 mmHg 86%
18:00 +8°C° 0.3 mm 2 mps 639 mmHg 89%
19:00 +9°C° 0.1 mm 1 mps 639 mmHg 91%
20:00 +8°C° 0.1 mm 1 mps 638 mmHg 93%
21:00 +8°C° 0.1 mm 1 mps 638 mmHg 94%
22:00 +8°C° 0 mm 1 mps 638 mmHg 94%
23:00 +8°C° 0 mm 1 mps 637 mmHg 93%

Day after tomorrow, 23 April, Friday

Time Temperature Precipitation Wind Pressure Humidity
00:00 +8°C° 0 mm 1 mps 637 mmHg 93%
01:00 +8°C° 0 mm 1 mps 637 mmHg 93%
02:00 +8°C° 0 mm 1 mps 637 mmHg 93%
03:00 +8°C° 0 mm 1 mps 636 mmHg 94%
04:00 +7°C° 0 mm 1 mps 637 mmHg 93%
05:00 +7°C° 0 mm 1 mps 637 mmHg 93%
06:00 +7°C° 0 mm 1 mps 637 mmHg 93%
07:00 +6°C° 0 mm 2 mps 637 mmHg 93%
08:00 +6°C° 0 mm 2 mps 638 mmHg 92%
09:00 +6°C° 0 mm 2 mps 638 mmHg 92%
10:00 +6°C° 0 mm 2 mps 638 mmHg 90%
11:00 +6°C° 0 mm 2 mps 638 mmHg 89%
12:00 +6°C° 0 mm 2 mps 638 mmHg 87%
13:00 +7°C° 0 mm 2 mps 638 mmHg 85%
14:00 +7°C° 0 mm 2 mps 638 mmHg 82%
15:00 +8°C° 0 mm 2 mps 639 mmHg 79%
16:00 +7°C° 0 mm 2 mps 639 mmHg 79%
17:00 +8°C° 0 mm 1 mps 639 mmHg 79%
18:00 +8°C° 0 mm 1 mps 640 mmHg 80%
19:00 +7°C° 0 mm 1 mps 639 mmHg 82%
20:00 +7°C° 0 mm 1 mps 639 mmHg 84%
21:00 +5°C° 0 mm 0 mps 639 mmHg 87%
22:00 +6°C° 0 mm 1 mps 638 mmHg 85%
23:00 +6°C° 0 mm 1 mps 638 mmHg 83%

24 April, Saturday

Time Temperature Precipitation Wind Pressure Humidity
00:00 +6°C° 0 mm 1 mps 638 mmHg 82%
01:00 +6°C° 0 mm 1 mps 637 mmHg 79%
02:00 +5°C° 0 mm 2 mps 637 mmHg 76%
03:00 +5°C° 0 mm 2 mps 637 mmHg 74%
04:00 +6°C° 0 mm 1 mps 637 mmHg 72%
05:00 +6°C° 0 mm 1 mps 637 mmHg 70%
06:00 +7°C° 0 mm 1 mps 637 mmHg 69%
07:00 +9°C° 0 mm 1 mps 637 mmHg 63%
08:00 +10°C° 0 mm 1 mps 638 mmHg 58%
09:00 +12°C° 0 mm 2 mps 638 mmHg 53%
10:00 +13°C° 0 mm 2 mps 638 mmHg 52%
11:00 +13°C° 0 mm 3 mps 638 mmHg 50%
12:00 +14°C° 0 mm 4 mps 638 mmHg 49%
13:00 +14°C° 0 mm 3 mps 638 mmHg 52%
14:00 +14°C° 0 mm 3 mps 638 mmHg 55%
15:00 +13°C° 0 mm 3 mps 638 mmHg 57%
16:00 +14°C° 0 mm 2 mps 639 mmHg 60%
17:00 +13°C° 0 mm 2 mps 639 mmHg 64%
18:00 +12°C° 0 mm 2 mps 639 mmHg 67%
19:00 +11°C° 0 mm 1 mps 639 mmHg 71%
20:00 +10°C° 0 mm 1 mps 639 mmHg 75%
21:00 +8°C° 0 mm 0 mps 639 mmHg 79%
22:00 +8°C° 0 mm 0 mps 638 mmHg 79%
23:00 +7°C° 0 mm 0 mps 638 mmHg 78%

25 April, Sunday

Time Temperature Precipitation Wind Pressure Humidity
00:00 +7°C° 0 mm 0 mps 638 mmHg 78%
01:00 +7°C° 0 mm 0 mps 638 mmHg 77%
02:00 +7°C° 0 mm 0 mps 637 mmHg 77%
03:00 +7°C° 0 mm 0 mps 637 mmHg 76%
04:00 +7°C° 0 mm 0 mps 637 mmHg 73%
05:00 +9°C° 0 mm 1 mps 637 mmHg 71%
06:00 +9°C° 0 mm 1 mps 637 mmHg 69%
07:00 +11°C° 0 mm 1 mps 637 mmHg 63%
08:00 +13°C° 0 mm 1 mps 638 mmHg 57%
09:00 +14°C° 0 mm 2 mps 638 mmHg 51%
10:00 +16°C° 0 mm 2 mps 638 mmHg 49%
11:00 +17°C° 0 mm 3 mps 638 mmHg 48%
12:00 +18°C° 0 mm 3 mps 638 mmHg 46%
13:00 +18°C° 0 mm 3 mps 637 mmHg 45%
14:00 +19°C° 0 mm 2 mps 637 mmHg 44%
15:00 +19°C° 0 mm 2 mps 636 mmHg 44%
16:00 +18°C° 0 mm 2 mps 636 mmHg 49%
17:00 +16°C° 0 mm 1 mps 636 mmHg 55%
18:00 +15°C° 0 mm 1 mps 635 mmHg 60%
19:00 +14°C° 0 mm 1 mps 635 mmHg 62%
20:00 +13°C° 0 mm 1 mps 635 mmHg 65%
21:00 +12°C° 0 mm 2 mps 635 mmHg 67%
22:00 +10°C° 0 mm 2 mps 635 mmHg 67%
23:00 +10°C° 0 mm 2 mps 635 mmHg 67%

26 April, Monday

Time Temperature Precipitation Wind Pressure Humidity
00:00 +10°C° 0 mm 2 mps 634 mmHg 68%
01:00 +10°C° 0 mm 2 mps 634 mmHg 68%
02:00 +10°C° 0 mm 2 mps 634 mmHg 69%
03:00 +9°C° 0 mm 2 mps 633 mmHg 70%
04:00 +10°C° 0 mm 2 mps 633 mmHg 68%
05:00 +10°C° 0 mm 2 mps 633 mmHg 66%
06:00 +12°C° 0 mm 2 mps 633 mmHg 64%
07:00 +14°C° 0 mm 2 mps 634 mmHg 59%
08:00 +16°C° 0 mm 2 mps 634 mmHg 53%
09:00 +17°C° 0 mm 2 mps 635 mmHg 48%
10:00 +18°C° 0.1 mm 2 mps 635 mmHg 48%
11:00 +18°C° 0.1 mm 2 mps 635 mmHg 47%
12:00 +18°C° 0.1 mm 2 mps 635 mmHg 47%
13:00 +16°C° 0.4 mm 3 mps 635 mmHg 56%
14:00 +13°C° 0.4 mm 3 mps 635 mmHg 64%
15:00 +11°C° 0.4 mm 3 mps 635 mmHg 73%
16:00 +10°C° 0 mm 3 mps 635 mmHg 78%
17:00 +9°C° 0 mm 2 mps 634 mmHg 83%
18:00 +8°C° 0 mm 2 mps 634 mmHg 87%
19:00 +8°C° 0.1 mm 2 mps 634 mmHg 89%
20:00 +7°C° 0.1 mm 2 mps 634 mmHg 91%
21:00 +8°C° 0.1 mm 1 mps 634 mmHg 93%
22:00 +8°C° 0.1 mm 1 mps 634 mmHg 93%
23:00 +8°C° 0.1 mm 1 mps 634 mmHg 93%
Show more

We Need Your Consent

Meteoprog and our Service Providers may store and access personal data such as cookies, device identifiers or other similar technologies on your device and process such data to personalise content and ads, as well as provide social media features and to analyse the traffic.

  • Store and/or access information on your device

    Cookies, device identifiers or other information can be stored or accessed on your device for the purposes indicated above.

  • Personalised ads and content, ad and content measurement, audience insights, and products development

    Ads and content can be personalised based on a profile. More data can be added to better personalise ads and content. Ad and content performance can be measured. Insights about the audience who saw the ads and content can be derived. Such data can be used to develop or improve user’s experience, systems and software.

By clicking ‘I Agree’ you will allow the use of indicated cookies, device identifiers, web beacons or other similar technologies. Your settings can be changed in the browser on your device.

For certain purposes, legitimate interests may be relied on, rather than consent. You can read more about this in our Privacy and Cookie Policy.